[[{"header":{"parameterUnit":"m.s-1","parameterCategory":1,"la1":30.2991,"la2":30.254,"lo1":-89.0895,"lo2":-89.0444,"dy":0.0017,"dx":0.0017,"nx":28,"ny":28,"refTime":"2025-05-24T03:00:00:Z","depth":0,"parameterNumber":2,"parameterNumberName":"U-component_of_WINDS"},"data":[0,0,0,0,0,0,0,0,0,0,0,0,0,0,0,0,0,0,0,0,0,0,0,0,0,0,0,0,0,0,0,0,0,0,0,0,0,0,0,0,0,0,0,0,0,0,0,0,0,0,0,0,0,0,0,0,0,0,0.1247,0.1249,0,0.1376,0.1378,0.1379,0.1492,0.1493,0.1494,0.1495,0.1629,0.1631,0.1634,0,0,0,0,0,0,0,0,0,0,0,0,0,0.1101,0.1103,0.1247,0.1249,0.125,0.1376,0.1378,0.1379,0.1491,0.1493,0.1494,0.1496,0.1628,0.1631,0.1634,0,0,0,0,0,0,0,0,0,0,0,0,0,0.1191,0.1104,0.1247,0.1321,0.1329,0.1375,0.1378,0.138,0.1491,0.1493,0.1495,0.1497,0.1627,0.1631,0.1634,0.1618,0,0,0.1645,0.1647,0,0,0,0,0,0,0,0,0.1186,0.1196,0.1309,0.1316,0.1325,0.142,0.1375,0.146,0.149,0.143,0.1495,0.1498,0.1558,0.1567,0.1587,0.1624,0.163,0.1645,0.1648,0.1649,0.165,0,0,0,0,0,0,0,0.1179,0.1191,0.1298,0.131,0.132,0.1349,0.1364,0.1392,0.1482,0.1435,0.1444,0.1457,0.1563,0.1584,0.1591,0.1632,0.1645,0.1649,0.1651,0.1652,0.1664,0.1662,0,0,0,0,0,0,0.1161,0.1185,0.1294,0.1302,0.1259,0.135,0.1367,0.1387,0.1482,0.1498,0.1455,0.1462,0.1577,0.1587,0.1596,0.1585,0.1649,0.1652,0.1655,0.1665,0.1663,0.1661,0,0,0,0,0,0,0.1158,0.117,0.1289,0.1246,0.1263,0.1351,0.1373,0.1389,0.141,0.1497,0.1514,0.146,0.1579,0.1591,0.1612,0.1591,0.1654,0.1657,0.1668,0.1665,0.1662,0.156,0,0,0,0,0,0,0.1153,0.1168,0.1162,0.1245,0.1265,0.1301,0.1372,0.139,0.1415,0.1425,0.1506,0.1521,0.1581,0.1606,0.1615,0.1597,0.166,0.167,0.1666,0.1663,0.1566,0.1554,0.1544,0,0,0,0,0,0.1147,0.1128,0.1161,0.1173,0.1259,0.13,0.1311,0.1381,0.1413,0.1408,0.1465,0.1518,0.1591,0.1607,0.1619,0.1601,0.1672,0.1667,0.1663,0.157,0.1556,0.1544,0,0,0,0,0,0,0.104,0.114,0.1178,0.1184,0.1232,0.1318,0.1314,0.1363,0.1404,0.1411,0.1496,0.1513,0.1525,0.1565,0.1581,0.1591,0.1639,0.1637,0.1564,0.1552,0.1541,0.1532,0.1663,0,0,0,0,0,0.1017,0.104,0.1127,0.1125,0.1147,0.1226,0.1246,0.1296,0.1349,0.137,0.1428,0.1479,0.1514,0.1535,0.1572,0.1572,0.1592,0.1566,0.1555,0.1546,0.1543,0.1548,0.1538,0.1648,0.1648,0.1648,0,0,0.097,0.1027,0.1037,0.1104,0.1148,0.1172,0.1243,0.1264,0.1283,0.1374,0.1397,0.1441,0.1504,0.1514,0.1522,0.1548,0.1517,0.154,0.1532,0.1535,0.1543,0.1532,0.1523,0.1645,0.1646,0.1646,0,0,0.0896,0.0941,0.0945,0.0987,0.1052,0.1105,0.1105,0.1184,0.1217,0.1241,0.1311,0.1335,0.1392,0.1435,0.1463,0.1407,0.1458,0.1416,0.1361,0.1365,0.1356,0.1349,0.133,0.1322,0.1414,0.1413,0.1413,0,0.083,0.0867,0.0941,0.0959,0.0987,0.107,0.1076,0.1113,0.1186,0.1204,0.1232,0.1308,0.1355,0.1378,0.1364,0.1384,0.1389,0.1408,0.1351,0.1345,0.1339,0.1322,0.1315,0.1408,0.1409,0.1409,0.141,0,0.0783,0.0808,0.0804,0.0872,0.09,0.0911,0.0988,0.1007,0.1054,0.1105,0.1129,0.119,0.1241,0.125,0.1296,0.1279,0.1294,0.1335,0.1385,0.1322,0.1308,0.1302,0.14,0.1402,0.1404,0.1405,0,0,0.0645,0.0755,0.0752,0.0785,0.0863,0.0884,0.09,0.095,0.0965,0.1013,0.103,0.1077,0.1116,0.1149,0.1201,0.1204,0.1157,0.1246,0.1249,0.1228,0.1145,0.1114,0.1105,0.1192,0.1191,0.119,0.114,0,0.0585,0.0618,0.0685,0.0697,0.0722,0.0802,0.0816,0.0866,0.0914,0.0943,0.0996,0.1029,0.1077,0.1098,0.1105,0.1161,0.1142,0.1166,0.1209,0.121,0.1192,0.1097,0.1064,0.1014,0.1135,0.1134,0.1133,0,0.052,0.0563,0.0577,0.0655,0.0668,0.0679,0.0731,0.0757,0.0816,0.0851,0.0887,0.0944,0.0967,0.1012,0.1045,0.106,0.1082,0.1112,0.1112,0.1119,0.1168,0.1103,0.1,0.0992,0.1125,0.1125,0.1126,0,0.0419,0.0481,0.0498,0.0523,0.0614,0.062,0.0659,0.0719,0.0745,0.0791,0.0809,0.0856,0.0882,0.0918,0.0987,0.1013,0.1013,0.1063,0.1043,0.1041,0.104,0.104,0.094,0.1052,0.1052,0.1052,0.1052,0,0.0346,0.0352,0.0454,0.0465,0.0474,0.0552,0.056,0.0605,0.0659,0.0681,0.0752,0.0771,0.086,0.089,0.0944,0.0964,0.0975,0.1005,0.1019,0.0999,0.0995,0.1015,0.1021,0.105,0.1051,0.1051,0.1051,0,0.0235,0.0304,0.0328,0.0412,0.0434,0.0437,0.051,0.0524,0.0576,0.0602,0.0613,0.0695,0.0734,0.0806,0.0865,0.0902,0.0911,0.0935,0.089,0.09,0.0876,0.0878,0.0786,0.0779,0.0894,0.0893,0.0892,0,0.0185,0.0191,0.0276,0.0296,0.0331,0.0361,0.0389,0.0466,0.0491,0.0559,0.0565,0.061,0.0649,0.0708,0.0773,0.0819,0.0846,0.0811,0.0854,0.0833,0.0847,0.0846,0.0848,0.0802,0.08,0.0799,0.0797,0,0.0087,0.0121,0.0157,0.0205,0.0236,0.0277,0.0323,0.0335,0.0423,0.0448,0.0488,0.0519,0.058,0.0623,0.0679,0.072,0.0774,0.0783,0.0782,0.0761,0.0736,0.0751,0.0865,0.0785,0.0787,0.0787,0.0788,0.0789,0.0007,0.0017,0.0078,0.0116,0.0159,0.02,0.0217,0.0272,0.0307,0.0362,0.0406,0.0443,0.0503,0.0584,0.0621,0.0652,0.0678,0.0674,0.0674,0.0672,0.0664,0.073,0.0663,0.0663,0.0664,0.0664,0.0664,0,-0.0086,-0.0042,-0.0008,0.0054,0.0084,0.0131,0.0185,0.0207,0.0239,0.029,0.0328,0.0375,0.0418,0.0487,0.0536,0.0548,0.0574,0.0558,0.0559,0.0568,0.0639,0.0636,0.0536,0.0536,0.0537,0.0537,0.0537,0.0537,-0.013,-0.011,-0.0069,-0.0026,0.0018,0.0055,0.0081,0.012,0.0162,0.0211,0.0247,0.0292,0.0351,0.0405,0.0447,0.0466,0.0482,0.0458,0.0485,0.055,0.0562,0.0574,0.0572,0.046,0.046,0.0412,0.0412,0.0411]},{"header":{"parameterUnit":"m.s-1","parameterCategory":1,"la1":30.2991,"la2":30.254,"lo1":-89.0895,"lo2":-89.0444,"dy":0.0017,"dx":0.0017,"nx":28,"ny":28,"refTime":"2025-05-24T03:00:00:Z","depth":0,"parameterNumber":3,"parameterNumberName":"V-component_of_WINDS"},"data":[0,0,0,0,0,0,0,0,0,0,0,0,0,0,0,0,0,0,0,0,0,0,0,0,0,0,0,0,0,0,0,0,0,0,0,0,0,0,0,0,0,0,0,0,0,0,0,0,0,0,0,0,0,0,0,0,0,0,2.4526,2.4525,0,2.4469,2.4468,2.4468,2.4481,2.4482,2.4483,2.4484,2.4421,2.4418,2.4415,0,0,0,0,0,0,0,0,0,0,0,0,0,2.464,2.4638,2.4526,2.4525,2.4524,2.4469,2.4468,2.4468,2.4481,2.4482,2.4483,2.4485,2.4422,2.4418,2.4415,0,0,0,0,0,0,0,0,0,0,0,0,0,2.4587,2.4637,2.4526,2.4524,2.4524,2.4469,2.4468,2.4467,2.448,2.4482,2.4484,2.4485,2.4423,2.4419,2.4415,2.4357,0,0,2.4402,2.44,0,0,0,0,0,0,0,0,2.459,2.4583,2.4525,2.4524,2.4524,2.4484,2.4485,2.443,2.448,2.4497,2.4484,2.4486,2.444,2.4435,2.442,2.4354,2.4351,2.4402,2.4399,2.4398,2.4397,0,0,0,0,0,0,0,2.4594,2.4585,2.4503,2.4524,2.4523,2.4525,2.4519,2.4475,2.446,2.4495,2.4496,2.449,2.444,2.4424,2.4419,2.435,2.4402,2.4398,2.4396,2.4394,2.4231,2.4229,0,0,0,0,0,0,2.4599,2.4588,2.4505,2.4501,2.4562,2.4521,2.4515,2.4495,2.446,2.4457,2.4488,2.449,2.443,2.4424,2.4417,2.4345,2.4398,2.4394,2.4392,2.4233,2.4231,2.4229,0,0,0,0,0,0,2.4601,2.4591,2.4507,2.4545,2.4535,2.4518,2.4495,2.4493,2.4477,2.4455,2.4452,2.4475,2.4431,2.4422,2.4371,2.4343,2.4392,2.4388,2.4235,2.4232,2.423,2.4202,0,0,0,0,0,0,2.4605,2.4592,2.4571,2.4545,2.4533,2.4464,2.4493,2.4491,2.4471,2.4473,2.4442,2.4438,2.4432,2.4377,2.4367,2.4338,2.4385,2.4238,2.4234,2.423,2.4205,2.4198,2.4193,0,0,0,0,0,2.4609,2.4565,2.457,2.456,2.4506,2.4463,2.4456,2.4451,2.4469,2.4446,2.4432,2.4439,2.4348,2.4372,2.4361,2.433,2.4239,2.4235,2.4231,2.4208,2.42,2.4193,0,0,0,0,0,0,2.4587,2.4561,2.4567,2.4514,2.4491,2.4465,2.4437,2.4442,2.4412,2.4416,2.4409,2.4402,2.435,2.4335,2.4362,2.4271,2.4296,2.4289,2.4282,2.4274,2.4268,2.4272,2.4382,0,0,0,0,0,2.4576,2.4545,2.4524,2.4478,2.4467,2.4454,2.4435,2.4433,2.4408,2.4398,2.438,2.4354,2.4319,2.4296,2.4263,2.4204,2.4196,2.4177,2.4171,2.4166,2.4159,2.4125,2.4115,2.4215,2.4215,2.4215,0,0,2.4553,2.4535,2.4515,2.4474,2.4456,2.4421,2.4446,2.4408,2.4382,2.4392,2.4343,2.4328,2.4299,2.4243,2.4217,2.4229,2.413,2.416,2.4156,2.4152,2.4119,2.411,2.4102,2.4212,2.4212,2.4213,0,0,2.4493,2.4477,2.4437,2.4419,2.4392,2.4384,2.4374,2.4348,2.4339,2.429,2.4296,2.4264,2.4206,2.4184,2.4165,2.4097,2.4101,2.4086,2.4052,2.4019,2.4011,2.4004,2.3977,2.3968,2.408,2.408,2.408,0,2.4467,2.4417,2.4416,2.4378,2.4358,2.4368,2.4326,2.4307,2.427,2.4255,2.427,2.4195,2.4176,2.4114,2.4098,2.4083,2.407,2.4088,2.4012,2.4005,2.3999,2.3973,2.3964,2.4078,2.4078,2.4079,2.4079,0,2.4385,2.4351,2.4322,2.4287,2.4264,2.4225,2.4215,2.4192,2.4193,2.4182,2.4131,2.4109,2.4071,2.4056,2.4056,2.3994,2.4002,2.4015,2.4039,2.3987,2.3963,2.3954,2.4075,2.4076,2.4077,2.4077,0,0,2.4309,2.4274,2.4263,2.4247,2.4218,2.419,2.415,2.4115,2.4094,2.4068,2.4033,2.3983,2.3994,2.3973,2.397,2.3941,2.3886,2.3957,2.3956,2.3942,2.3814,2.3803,2.3792,2.389,2.3888,2.3887,2.3816,0,2.4244,2.4176,2.4173,2.411,2.4077,2.4085,2.405,2.4027,2.4016,2.3985,2.3973,2.3937,2.3955,2.3942,2.3914,2.3899,2.3859,2.3904,2.3854,2.3853,2.386,2.378,2.3769,2.3703,2.3806,2.3805,2.3804,0,2.416,2.4133,2.4067,2.4042,2.4027,2.3996,2.3963,2.3934,2.3907,2.3901,2.3878,2.3879,2.3836,2.3864,2.3803,2.3833,2.3813,2.3802,2.3799,2.3793,2.3824,2.3769,2.3682,2.3671,2.3789,2.379,2.3791,0,2.4108,2.4055,2.4008,2.3994,2.3964,2.3942,2.3928,2.3904,2.3882,2.3852,2.3838,2.3803,2.3784,2.3756,2.3747,2.3768,2.3685,2.3713,2.3677,2.3677,2.3658,2.3659,2.3564,2.3648,2.3648,2.3649,2.3649,0,2.4036,2.3994,2.3984,2.3955,2.3908,2.3905,2.3858,2.3846,2.3824,2.3791,2.3796,2.3764,2.3756,2.3722,2.3715,2.3664,2.3656,2.3648,2.3646,2.3646,2.3647,2.3631,2.3635,2.3646,2.3647,2.3647,2.3648,0,2.3969,2.3961,2.391,2.3887,2.3879,2.3846,2.3824,2.3795,2.3786,2.3744,2.3734,2.3718,2.3678,2.3667,2.362,2.3615,2.3555,2.3558,2.3564,2.3563,2.3528,2.353,2.3418,2.3402,2.3499,2.3498,2.3497,0,2.3922,2.3891,2.3864,2.3843,2.3828,2.3795,2.3773,2.3769,2.3745,2.3713,2.3687,2.3649,2.3618,2.3554,2.3537,2.35,2.3501,2.3464,2.3495,2.3496,2.3498,2.3499,2.3495,2.3457,2.3456,2.3456,2.3455,0,2.3839,2.3837,2.3807,2.3775,2.3749,2.3723,2.3698,2.368,2.3672,2.3645,2.3606,2.3582,2.3534,2.3495,2.3458,2.3441,2.3445,2.3446,2.3435,2.3434,2.3438,2.3433,2.3546,2.3448,2.3448,2.3449,2.3449,2.345,2.378,2.3751,2.3728,2.3694,2.3675,2.3651,2.3623,2.361,2.3578,2.3539,2.3538,2.3495,2.3468,2.3419,2.34,2.3365,2.3376,2.3361,2.3357,2.3352,2.3348,2.3445,2.3358,2.3358,2.3359,2.3359,2.3359,0,2.3695,2.3681,2.365,2.3615,2.3587,2.3597,2.3569,2.3545,2.3507,2.3483,2.3453,2.3406,2.3369,2.3349,2.3311,2.3286,2.3287,2.3276,2.3276,2.3272,2.3342,2.3354,2.3276,2.3276,2.3276,2.3276,2.3276,2.3276,2.3648,2.36,2.3595,2.3538,2.3523,2.3482,2.3465,2.3443,2.3423,2.3372,2.3341,2.3329,2.3306,2.3266,2.3231,2.3226,2.3211,2.3198,2.3194,2.3259,2.3267,2.3275,2.3287,2.3195,2.3195,2.3127,2.3126,2.3126]}]]